FW8346 Weather Reports


time (UTC)temp
C
wind
direction
speed
KPH
gust
KPH
rain 1hr
cm
rain 24hr
cm
rain mn
cm
humidity
%
barometer
mb
20260906173654 26 100 3.2 9.7 0.00 0.00 0.00 64 1018.7
20260906173148 27 145 3.2 9.7 0.00 0.00 0.00 66 1019.0
20260906172642 26 120 3.2 11.3 0.00 0.00 0.00 66 1019.0
20260906172136 26 137 4.8 11.3 0.00 0.00 0.00 69 1019.0
20260906171902 26 77 6.4 16.1 0.00 0.00 0.00 69 1019.1
20260906171124 26 117 6.4 16.1 0.00 0.00 0.00 68 1019.2
20260906170618 26 278 6.4 11.3 0.00 0.00 0.00 71 1019.3
20260906170112 26 153 6.4 14.5 0.00 0.00 0.00 72 1019.3
20260906165606 26 101 4.8 14.5 0.00 0.00 0.00 72 1019.3
20260906165105 26 50 3.2 11.3 0.00 0.00 0.00 74 1019.2
20260906164835 26 55 1.6 8.0 0.00 0.00 0.00 73 1019.2
20260906164100 26 79 1.6 6.4 0.00 0.00 0.00 76 1019.1
20260906163600 25 129 3.2 12.9 0.00 0.00 0.00 75 1019.1
20260906163100 25 122 3.2 12.9 0.00 0.00 0.00 79 1019.2
20260906162601 25 94 3.2 8.0 0.00 0.00 0.00 77 1019.2
20260906162101 25 109 4.8 14.5 0.00 0.00 0.00 78 1019.4
20260906161558 25 116 4.8 14.5 0.00 0.00 0.00 80 1019.5
20260906161058 25 115 3.2 9.7 0.00 0.00 0.00 79 1019.5
20260906160558 24 134 3.2 8.0 0.00 0.00 0.00 80 1019.5
20260906160100 24 140 1.6 8.0 0.00 0.00 0.00 80 1019.6
20260906155557 24 79 3.2 9.7 0.00 0.00 0.00 81 1019.5
20260906155057 24 166 4.8 16.1 0.00 0.00 0.00 82 1019.5
20260906154557 24 103 4.8 16.1 0.00 0.00 0.00 81 1019.3
20260906154055 24 140 4.8 9.7 0.00 0.00 0.00 84 1019.3
20260906153824 23 84 3.2 9.7 0.00 0.00 0.00 85 1019.3
20260906153055 23 120 4.8 14.5 0.00 0.00 0.00 86 1019.3
20260906152555 23 129 4.8 14.5 0.00 0.00 0.00 86 1019.5
20260906152053 23 101 4.8 11.3 0.00 0.00 0.00 86 1019.6
20260906151554 23 122 4.8 9.7 0.00 0.00 0.00 86 1019.5
20260906151054 22 89 4.8 8.0 0.00 0.00 0.00 89 1019.6
20260906150553 22 94 3.2 8.0 0.00 0.00 0.00 88 1019.7
20260906150055 22 114 3.2 12.9 0.00 0.00 0.00 88 1019.7
20260906145553 22 170 3.2 12.9 0.00 0.00 0.00 88 1019.7
20260906145054 22 120 3.2 11.3 0.00 0.00 0.00 88 1019.5
20260906144554 21 112 3.2 8.0 0.00 0.00 0.00 91 1019.4
20260906144054 21 130 3.2 6.4 0.00 0.00 0.00 90 1019.8
20260906143551 21 97 1.6 8.0 0.00 0.00 0.00 90 1019.8
20260906143050 21 198 1.6 8.0 0.00 0.00 0.00 91 1019.6
20260906142551 21 174 1.6 4.8 0.00 0.00 0.00 92 1019.5
20260906142050 21 82 3.2 6.4 0.00 0.00 0.00 92 1019.5
20260906141551 20 212 3.2 6.4 0.00 0.00 0.00 93 1019.4
20260906141051 20 122 1.6 6.4 0.00 0.00 0.00 93 1019.5
20260906140550 20 112 1.6 4.8 0.00 0.00 0.00 92 1019.4
20260906140050 20 144 1.6 6.4 0.00 0.00 0.00 92 1019.5
20260906135551 20 136 1.6 6.4 0.00 0.00 0.00 91 1019.8
20260906135050 21 82 0.0 6.4 0.00 0.00 0.00 93 1019.7
20260906134549 20 139 0.0 6.4 0.00 0.00 0.00 95 1019.7
20260906134051 20 96 0.0 4.8 0.00 0.00 0.00 96 1019.6
20260906133549 19 113 1.6 4.8 0.00 0.00 0.00 97 1019.7
20260906133049 18 89 1.6 4.8 0.00 0.00 0.00 97 1019.7
20260906132820 18 104 1.6 6.4 0.00 0.00 0.00 97 1019.6
20260906132050 18 130 1.6 6.4 0.00 0.00 0.00 97 1019.5
20260906131821 18 68 1.6 8.0 0.00 0.00 0.00 97 1019.7
20260906131712 18 98 3.2 8.0 0.00 0.00 0.00 97 1019.5
20260906130545 18 122 1.6 8.0 0.00 0.00 0.00 97 1019.2
20260906130039 17 120 0.0 6.4 0.00 0.00 0.00 97 1019.5
20260906125533 17 92 1.6 6.4 0.00 0.00 0.00 97 1019.6
20260906125027 17 87 0.0 4.8 0.00 0.00 0.00 97 1019.6
20260906124522 17 97 0.0 0.0 0.00 0.00 0.00 97 1019.6
20260906124015 17 78 0.0 1.6 0.00 0.00 0.00 97 1019.5
20260906123510 17 79 0.0 1.6 0.00 0.00 0.00 97 1019.4
20260906123003 17 82 0.0 1.6 0.00 0.00 0.00 97 1019.4
20260906122733 17 83 0.0 1.6 0.00 0.00 0.00 97 1019.4
20260906122454 17 113 0.0 3.2 0.00 0.00 0.00 97 1019.2
20260906121445 17 120 0.0 3.2 0.00 0.00 0.00 97 1019.0
20260906120939 17 114 0.0 1.6 0.00 0.00 0.00 97 1019.2
20260906120433 17 103 0.0 0.0 0.00 0.00 0.00 97 1019.3
20260906120158 16 103 0.0 0.0 0.00 0.00 0.00 97 1019.3
20260906115421 16 84 0.0 0.0 0.00 0.00 0.00 97 1019.4
20260906115146 16 86 0.0 0.0 0.00 0.00 0.00 97 1019.4
20260906114641 16 101 0.0 1.6 0.00 0.00 0.00 97 1019.3
20260906114135 16 114 0.0 1.6 0.00 0.00 0.00 97 1019.2
20260906113357 16 82 0.0 1.6 0.00 0.00 0.00 97 1019.2
20260906112851 16 65 0.0 1.6 0.00 0.00 0.00 97 1019.2
20260906112345 16 100 0.0 1.6 0.00 0.00 0.00 97 1019.1
20260906111839 16 87 0.0 0.0 0.00 0.00 0.00 97 1019.0
20260906111604 16 97 0.0 0.0 0.00 0.00 0.00 97 1019.0
20260906110827 16 107 0.0 1.6 0.00 0.00 0.00 97 1019.1
20260906110321 16 123 0.0 0.0 0.00 0.00 0.00 97 1019.0
20260906105815 16 129 0.0 1.6 0.00 0.00 0.00 97 1019.0
20260906105309 16 130 0.0 1.6 0.00 0.00 0.00 97 1019.1
20260906104803 16 111 0.0 1.6 0.00 0.00 0.00 97 1019.1
20260906104258 16 82 0.0 1.6 0.00 0.00 0.00 97 1019.0
20260906103751 16 119 0.0 1.6 0.00 0.00 0.00 97 1019.0
20260906103245 16 79 0.0 1.6 0.00 0.00 0.00 97 1019.0
20260906102738 16 70 0.0 1.6 0.00 0.00 0.00 97 1018.8
20260906102233 17 79 0.0 3.2 0.00 0.00 0.00 97 1018.7
20260906101727 17 92 1.6 4.8 0.00 0.00 0.00 97 1018.5
20260906101221 17 79 0.0 4.8 0.00 0.00 0.00 97 1018.5
20260906100715 17 68 0.0 4.8 0.00 0.00 0.00 97 1018.5
20260906100209 17 98 1.6 6.4 0.00 0.00 0.00 97 1018.4
20260906095703 17 95 1.6 6.4 0.00 0.00 0.00 97 1018.2
20260906095429 17 84 1.6 4.8 0.00 0.00 0.00 97 1018.2
20260906094651 17 79 1.6 4.8 0.00 0.00 0.00 97 1018.2
20260906094145 17 99 1.6 4.8 0.00 0.00 0.00 97 1018.1
20260906093639 17 79 1.6 3.2 0.00 0.00 0.00 97 1018.1
20260906093133 17 69 1.6 4.8 0.00 0.00 0.00 97 1017.9
20260906092628 17 81 1.6 4.8 0.00 0.00 0.00 97 1017.9
20260906092121 17 77 1.6 4.8 0.00 0.00 0.00 97 1017.9
20260906091615 17 90 1.6 4.8 0.00 0.00 0.00 97 1018.0
20260906091109 17 82 0.0 3.2 0.00 0.00 0.00 97 1018.0
20260906090603 17 111 0.0 0.0 0.00 0.00 0.00 97 1018.1
20260906090057 17 101 0.0 1.6 0.00 0.00 0.00 97 1018.2
20260906085551 17 125 0.0 1.6 0.00 0.00 0.00 97 1018.3
20260906085045 17 87 0.0 1.6 0.00 0.00 0.00 97 1018.2
20260906084539 17 130 0.0 1.6 0.00 0.00 0.00 97 1018.1
20260906084032 17 129 0.0 4.8 0.00 0.00 0.00 97 1018.0
20260906083527 17 120 0.0 4.8 0.00 0.00 0.00 97 1018.0
20260906083021 17 97 1.6 4.8 0.00 0.00 0.00 97 1018.0
20260906082515 17 98 1.6 4.8 0.00 0.00 0.00 97 1018.1
20260906082009 17 87 1.6 4.8 0.00 0.00 0.00 97 1018.2
20260906081503 17 95 1.6 6.4 0.00 0.00 0.00 97 1018.2
20260906080958 17 71 3.2 6.4 0.00 0.00 0.00 97 1018.2
20260906080451 17 52 1.6 6.4 0.00 0.00 0.00 97 1018.4
20260906075946 17 62 1.6 4.8 0.00 0.00 0.00 97 1018.5
20260906075439 17 33 1.6 4.8 0.00 0.00 0.00 97 1018.5
20260906074936 17 53 3.2 8.0 0.00 0.00 0.00 97 1018.4
20260906074929 17 22 3.2 8.0 0.00 0.00 0.00 97 1018.4
20260906074152 17 20 1.6 6.4 0.00 0.00 0.00 97 1018.4
20260906073415 17 87 1.6 4.8 0.00 0.00 0.00 97 1018.3
20260906072909 18 52 1.6 4.8 0.00 0.00 0.00 97 1018.3
20260906072403 17 58 1.6 4.8 0.00 0.00 0.00 97 1018.4
20260906071857 18 49 0.0 4.8 0.00 0.00 0.00 97 1018.4
20260906071351 17 56 0.0 4.8 0.00 0.00 0.00 97 1018.5
20260906070845 17 89 0.0 1.6 0.00 0.00 0.00 97 1018.5
20260906070339 17 74 0.0 0.0 0.00 0.00 0.00 96 1018.4
20260906065833 17 75 0.0 1.6 0.00 0.00 0.00 96 1018.4
20260906065327 18 77 0.0 3.2 0.00 0.00 0.00 97 1018.4
20260906064821 18 64 0.0 3.2 0.00 0.00 0.00 97 1018.5
20260906064547 17 79 0.0 1.6 0.00 0.00 0.00 97 1018.5
20260906063809 17 81 0.0 1.6 0.00 0.00 0.00 96 1018.5
20260906063303 17 82 0.0 0.0 0.00 0.00 0.00 96 1018.5
20260906062757 18 82 0.0 1.6 0.00 0.00 0.00 96 1018.5
20260906062519 18 71 1.6 4.8 0.00 0.00 0.00 96 1018.6
20260906062354 18 74 0.0 1.6 0.00 0.00 0.00 96 1018.6
20260906061239 18 73 1.6 4.8 0.00 0.00 0.00 96 1018.6
20260906060733 18 71 0.0 1.6 0.00 0.00 0.00 96 1018.7
20260906060227 18 83 0.0 1.6 0.00 0.00 0.00 96 1018.7
20260906055722 18 92 1.6 4.8 0.00 0.00 0.00 96 1018.6
20260906055220 18 72 1.6 4.8 0.00 0.00 0.00 96 1018.5
20260906054717 18 81 0.0 3.2 0.00 0.00 0.00 96 1018.6
20260906054447 18 84 1.6 4.8 0.00 0.00 0.00 96 1018.5
20260906053946 18 82 3.2 8.0 0.00 0.00 0.00 95 1018.4
20260906053445 18 79 1.6 8.0 0.00 0.00 0.00 96 1018.4
20260906052714 18 70 3.2 9.7 0.00 0.00 0.00 95 1018.5
20260906052214 18 62 4.8 9.7 0.00 0.00 0.00 96 1018.5
20260906051712 18 63 4.8 8.0 0.00 0.00 0.00 95 1018.5
20260906051212 18 61 6.4 9.7 0.00 0.00 0.00 95 1018.5
20260906050943 18 70 4.8 9.7 0.00 0.00 0.00 95 1018.5
20260906050212 18 84 4.8 9.7 0.00 0.00 0.00 95 1018.5
20260906045711 18 74 4.8 9.7 0.00 0.00 0.00 95 1018.6
20260906045439 18 77 4.8 9.7 0.00 0.00 0.00 95 1018.7
20260906044939 18 41 4.8 8.0 0.00 0.00 0.00 95 1018.7
20260906044210 18 58 4.8 9.7 0.00 0.00 0.00 95 1018.7
20260906043938 18 45 4.8 9.7 0.00 0.00 0.00 95 1018.7
20260906043205 18 61 4.8 8.0 0.00 0.00 0.00 95 1018.7
20260906042702 18 65 4.8 8.0 0.00 0.00 0.00 95 1018.6
20260906042204 18 61 3.2 6.4 0.00 0.00 0.00 95 1018.6
20260906041704 19 81 3.2 6.4 0.00 0.00 0.00 94 1018.6
20260906041204 19 66 3.2 8.0 0.00 0.00 0.00 94 1018.4
20260906040934 19 73 3.2 8.0 0.00 0.00 0.00 94 1018.6
20260906040159 19 46 4.8 6.4 0.00 0.00 0.00 94 1018.7
20260906035929 19 69 4.8 6.4 0.00 0.00 0.00 94 1018.5
20260906035156 19 75 4.8 8.0 0.00 0.00 0.00 94 1018.5
20260906034925 19 68 3.2 8.0 0.00 0.00 0.00 94 1018.5
20260906034426 19 57 1.6 6.4 0.00 0.00 0.00 93 1018.5
20260906033654 19 69 3.2 8.0 0.00 0.00 0.00 93 1018.5
20260906033425 19 63 4.8 8.0 0.00 0.00 0.00 93 1018.5
20260906032654 20 79 4.8 6.4 0.00 0.00 0.00 93 1018.5
20260906032156 20 83 4.8 6.4 0.00 0.00 0.00 93 1018.5
20260906031650 20 76 4.8 6.4 0.00 0.00 0.00 93 1018.5
20260906031151 20 69 3.2 6.4 0.00 0.00 0.00 93 1018.5
20260906030650 20 77 3.2 6.4 0.00 0.00 0.00 93 1018.4
20260906030150 20 86 0.0 4.8 0.00 0.00 0.00 93 1018.4
20260906025651 20 84 1.6 4.8 0.00 0.00 0.00 92 1018.4
20260906025151 20 75 3.2 6.4 0.00 0.00 0.00 92 1018.4
20260906024658 20 77 0.0 3.2 0.00 0.00 0.00 93 1018.5
20260906024652 20 72 1.6 6.4 0.00 0.00 0.00 92 1018.4
20260906023652 20 82 0.0 1.6 0.00 0.00 0.00 92 1018.5
20260906023419 20 93 0.0 1.6 0.00 0.00 0.00 92 1018.5
20260906022647 20 64 0.0 1.6 0.00 0.00 0.00 92 1018.5
20260906022146 20 73 0.0 1.6 0.00 0.00 0.00 91 1018.5
20260906021648 20 66 0.0 1.6 0.00 0.00 0.00 91 1018.4
20260906021147 20 74 0.0 1.6 0.00 0.00 0.00 91 1018.2
20260906020648 20 64 0.0 3.2 0.00 0.00 0.00 90 1018.2
20260906020148 21 64 0.0 3.2 0.00 0.00 0.00 90 1018.2
20260906015653 20 68 0.0 1.6 0.00 0.00 0.00 91 1018.1
20260906015648 21 63 0.0 3.2 0.00 0.00 0.00 90 1018.2
20260906014645 20 71 0.0 1.6 0.00 0.00 0.00 89 1018.0
20260906014143 21 72 0.0 1.6 0.00 0.00 0.00 89 1017.8
20260906013639 21 72 0.0 1.6 0.00 0.00 0.00 89 1017.6
20260906013138 21 89 0.0 4.8 0.00 0.00 0.00 88 1017.6
20260906012640 21 86 1.6 4.8 0.00 0.00 0.00 88 1017.5
20260906012138 21 65 1.6 4.8 0.00 0.00 0.00 87 1017.4
20260906011636 21 74 0.0 3.2 0.00 0.00 0.00 87 1017.3
20260906011136 21 60 1.6 6.4 0.00 0.00 0.00 87 1017.3
20260906010636 21 48 4.8 9.7 0.00 0.00 0.00 86 1017.0
20260906010137 22 74 6.4 9.7 0.00 0.00 0.00 86 1016.6
20260906005637 22 70 8.0 11.3 0.00 0.00 0.00 85 1016.5
20260906005136 22 70 8.0 11.3 0.00 0.00 0.00 85 1016.3
20260906004909 22 80 9.7 12.9 0.00 0.00 0.00 85 1016.2
20260906004138 22 72 8.0 12.9 0.00 0.00 0.00 84 1016.2
20260906003638 22 71 8.0 12.9 0.00 0.00 0.00 84 1016.1
20260906003131 23 79 8.0 14.5 0.00 0.00 0.00 83 1016.1
20260906002626 23 79 9.7 14.5 0.00 0.00 0.00 83 1015.8
20260906002122 23 80 9.7 16.1 0.00 0.00 0.00 83 1015.8
20260906001854 23 77 8.0 16.1 0.00 0.00 0.00 82 1015.8
20260906001121 23 75 9.7 16.1 0.00 0.00 0.00 83 1015.8
20260906000619 23 71 8.0 16.1 0.00 0.00 0.00 81 1015.7
20260906000120 23 72 6.4 16.1 0.00 0.00 0.00 80 1015.6
20260905235620 24 122 4.8 9.7 0.00 0.00 0.00 80 1015.6
20260905235347 24 68 4.8 11.3 0.00 0.00 0.00 80 1015.6
20260905234617 24 106 6.4 11.3 0.00 0.00 0.00 79 1015.6
20260905234117 24 88 4.8 11.3 0.00 0.00 0.00 79 1015.6
20260905233616 24 91 6.4 14.5 0.00 0.00 0.00 79 1015.7
20260905233116 24 96 8.0 14.5 0.00 0.00 0.00 79 1015.7
20260905232616 24 96 8.0 16.1 0.00 0.00 0.00 78 1015.7
20260905232114 24 64 8.0 16.1 0.00 0.00 0.00 78 1015.7
20260905231613 24 86 8.0 17.7 0.00 0.00 0.00 79 1015.7
20260905231346 24 127 8.0 17.7 0.00 0.00 0.00 79 1015.7
20260905230612 24 82 8.0 14.5 0.00 0.00 0.00 79 1016.0
20260905230113 24 121 9.7 16.1 0.00 0.00 0.00 78 1016.1
20260905225607 24 91 11.3 16.1 0.00 0.00 0.00 79 1016.1
20260905225331 24 79 11.3 17.7 0.00 0.00 0.00 79 1016.1
20260905224555 24 85 9.7 17.7 0.00 0.00 0.00 79 1016.1
20260905224048 24 72 8.0 14.5 0.00 0.00 0.00 79 1016.2
20260905223543 24 86 8.0 14.5 0.00 0.00 0.00 80 1016.3
20260905223037 24 85 11.3 16.1 0.00 0.00 0.00 80 1016.3
20260905222531 24 90 9.7 16.1 0.00 0.00 0.00 80 1016.4
20260905222024 24 112 9.7 17.7 0.00 0.00 0.00 80 1016.4
20260905221519 24 72 8.0 17.7 0.00 0.00 0.00 82 1016.5
20260905221013 24 86 8.0 12.9 0.00 0.00 0.00 82 1016.7
20260905220507 23 53 8.0 14.5 0.00 0.00 0.00 81 1016.9
20260905220001 23 79 6.4 14.5 0.00 0.00 0.00 82 1017.0
20260905215455 23 58 3.2 12.9 0.00 0.00 0.00 82 1016.9
20260905215220 23 65 4.8 11.3 0.00 0.00 0.00 83 1016.9
20260905214443 23 168 6.4 17.7 0.00 0.00 0.00 82 1016.9
20260905213936 23 48 6.4 17.7 0.00 0.00 0.00 84 1017.0
20260905213701 23 72 4.8 11.3 0.00 0.00 0.00 84 1017.1
20260905212924 23 56 6.4 12.9 0.00 0.00 0.00 84 1017.1
20260905212419 23 62 6.4 12.9 0.00 0.00 0.00 83 1017.2
20260905211913 23 72 6.4 12.9 0.00 0.00 0.00 84 1017.5
20260905211407 23 66 4.8 12.9 0.00 0.00 0.00 84 1017.5
20260905210901 22 79 4.8 12.9 0.00 0.00 0.00 84 1017.5
20260905210355 22 56 8.0 16.1 0.00 0.00 0.00 84 1017.6
20260905205848 22 77 6.4 16.1 0.00 0.00 0.00 86 1017.6
20260905205343 22 60 4.8 12.9 0.00 0.00 0.00 85 1017.6
20260905204836 22 79 6.4 11.3 0.00 0.00 0.00 85 1017.6
20260905204603 22 77 6.4 11.3 0.00 0.00 0.00 85 1017.7
20260905203824 22 68 4.8 9.7 0.00 0.00 0.00 86 1017.9
20260905203319 22 87 4.8 9.7 0.00 0.00 0.00 86 1018.0
20260905202813 22 108 4.8 9.7 0.00 0.00 0.00 85 1018.0
20260905202307 22 77 3.2 8.0 0.00 0.00 0.00 84 1018.1
20260905201801 22 133 3.2 8.0 0.00 0.00 0.00 84 1018.1
20260905201527 23 87 0.0 4.8 0.00 0.00 0.00 84 1018.2
20260905200749 22 131 0.0 6.4 0.00 0.00 0.00 85 1018.1
20260905200243 22 155 1.6 8.0 0.00 0.00 0.00 85 1018.3
20260905200007 22 113 1.6 8.0 0.00 0.00 0.00 85 1018.4
20260905195231 22 84 1.6 6.4 0.00 0.00 0.00 84 1018.4
20260905194725 22 91 0.0 6.4 0.00 0.00 0.00 84 1018.5
20260905194451 22 97 0.0 1.6 0.00 0.00 0.00 87 1018.5
20260905193713 22 112 0.0 4.8 0.00 0.00 0.00 86 1018.6
20260905193437 22 247 0.0 6.4 0.00 0.00 0.00 89 1018.6
20260905192701 22 122 1.6 8.0 0.00 0.00 0.00 87 1018.6
20260905192155 22 110 3.2 9.7 0.00 0.00 0.00 88 1018.6
20260905191649 21 101 3.2 9.7 0.00 0.00 0.00 87 1018.5
20260905191143 21 147 1.6 8.0 0.00 0.00 0.00 88 1018.6
20260905190909 21 82 3.2 9.7 0.00 0.00 0.00 88 1018.5
20260905190131 21 89 3.2 9.7 0.00 0.00 0.00 88 1018.4
20260905185856 21 84 1.6 6.4 0.00 0.00 0.00 88 1018.4
20260905185122 21 89 1.6 6.4 0.00 0.00 0.00 89 1018.4
20260905184613 21 119 3.2 8.0 0.00 0.00 0.00 89 1018.4
20260905184107 21 86 1.6 9.7 0.00 0.00 0.00 88 1018.3
20260905183601 21 124 3.2 11.3 0.00 0.00 0.00 89 1018.2
20260905183054 21 83 3.2 9.7 0.00 0.00 0.00 89 1018.1
20260905182824 21 101 4.8 12.9 0.00 0.00 0.00 89 1018.1
20260905182059 21 86 4.8 9.7 0.00 0.00 0.00 89 1018.0
20260905182055 21 118 6.4 12.9 0.00 0.00 0.00 89 1018.1
20260905181053 21 120 4.8 9.7 0.00 0.00 0.00 89 1018.2
20260905180553 21 70 4.8 12.9 0.00 0.00 0.00 90 1018.1
20260905180051 21 107 4.8 12.9 0.00 0.00 0.00 89 1018.2
20260905175551 21 89 6.4 12.9 0.00 0.00 0.00 90 1018.2
20260905175049 21 83 6.4 11.3 0.00 0.00 0.00 91 1018.3
20260905174548 21 94 4.8 11.3 0.00 0.00 0.00 92 1018.3
20260905174047 20 58 1.6 6.4 0.00 0.00 0.00 92 1018.5